Вернуться в каталог

CSTB 1

АктивенНаукаSSO
NORAD 31122·PAYLOAD·🇺🇸 United States

Запущен Apr 17, 2007 с Baikonur Cosmodrome

Loading…

Ближайшие Пролёты (ближайшие 24 часа)

TLE

СвежийSource: Space-Track

Эпоха: Sep 14, 2026, 11:30 UTC

1 31122U 07012F   26257.47944299  .00001527  00000-0  23758-3 0  9992
2 31122  98.4179 263.3953 0063458 344.9074  15.0237 14.73271491 34696

Отслеживайте CSTB 1 в реальном времени с AllMySat

Download on the App Store